Terug naar catalogus

COSMOS 1124 DEB

ActiefHEO
NORAD 32982·DEBRIS·🇷🇺 Russia

Gelanceerd Aug 28, 1979 vanaf Plesetsk Cosmodrome

Loading…

Volgende Passages (komende 24 uur)

TLE

VersSource: Space-Track

Epoch: Sep 8, 2026, 03:00 UTC

1 32982U 79077H   26251.12553649  .00000176  00000-0  00000-0 0  9999
2 32982  65.4756 170.5080 6650870 328.7908   4.8277  2.09816240222656

Volg COSMOS 1124 DEB in realtime met AllMySat

Download on the App Store